Weather Roundup
Issued by NWS

Home | Current Version | Previous Version | Graphics & Text | Print | Product List | Glossary Off
Versions: 1 2 3 4 5 6 7 8 9 10 11 12 13 14 15 16 17 18 19 20 21 22 23 24 25 26 27 28 29 30 31 32 33 34 35 36 37 38 39 40 41 42 43 44 45 46 47 48 49 50

000
NZUS93 KARX 252110
HRRWXR

CURRENT HOURLY OBSERVATIONS ACROSS
MUCH OF THE UPPER MISSISSIPPI VALLEY
NATIONAL WEATHER SERVICE LA CROSSE WI
300 PM CST SAT FEB 25 2017


...SOUTHEAST MINNESOTA...


CITY           SKY/WX    TMP DP  RH WIND       PRES   REMARKS
ROCHESTER      SUNNY     22  13  68 W13       29.93S WCI  10
ROCHESTER/MAYO FAIR      26  13  57 W8G17     29.93S WCI  18
WINONA         SUNNY     30  12  47 NW9       29.95S WCI  22
AUSTIN         SUNNY     23  14  68 SW12      29.95S WCI  12
ALBERT LEA     SUNNY     25  16  68 SW9       29.95S WCI  15
DODGE CENTER   NOT AVBL
PRESTON        SUNNY     22  11  62 W12       29.94S WCI  11
OWATONNA       SUNNY     27  16  63 SW17      29.93S WCI  14
FARIBAULT      CLOUDY    30  18  59 SW9       29.93S WCI  22
$$

...ELSEWHERE IN MINNESOTA...


CITY           SKY/WX    TMP DP  RH WIND       PRES   REMARKS
MINNEAPOLIS    PTSUNNY   32  13  45 W15G23    29.89F WCI  22
INTNL FALLS    CLOUDY    21  11  65 SW8       29.72F WCI  11
DULUTH         MOSUNNY   24  13  62 W15       29.76F WCI  11
RED WING       SUNNY     30   9  40 W12       29.91S WCI  21
REDWOOD FALLS  CLOUDY    35  16  45 SW14      29.89F WCI  26
MANKATO          N/A     29  19  66 SW15      29.93F WCI  18
WORTHINGTON    CLOUDY    26  18  71 SW18      29.92F WCI  13
FAIRMONT       CLOUDY    28  18  66 SW13      29.96F WCI  17
$$

...SOUTHWEST WISCONSIN...


CITY           SKY/WX    TMP DP  RH WIND       PRES   REMARKS
LA CROSSE      SUNNY     28  10  46 NW8       29.95R WCI  20
PRAIRIE DU CHI SUNNY     27  10  47 NW10      29.98R WCI  17
BOSCOBEL       SUNNY     27  10  49 W13       29.96R WCI  16
LONE ROCK      SUNNY     26  10  50 W16G23    29.94R WCI  14
PLATTEVILLE    SUNNY     25  17  70 W8        29.95R WCI  16
FORT MC COY    SUNNY     26  11  51 NW14G21   29.92R WCI  15
CAMP DOUGLAS   MOSUNNY   23   9  54 W17G25    29.89R WCI   9
MAUSTON-NEW LI CLEAR     24   9  53 NW14      29.89R WCI  12
VIROQUA        FAIR      24  10  56 W9        29.91R WCI  14
WIS DELLS      SUNNY     24  11  57 W10       29.89R WCI  13
$$

...ELSEWHERE IN WISCONSIN...


CITY           SKY/WX    TMP DP  RH WIND       PRES   REMARKS
MILWAUKEE      FLURRIES  22   9  57 W16G25    29.88R WCI   8
MADISON        MOSUNNY   24  13  62 NW15G23   29.89R WCI  11
GREEN BAY      MOSUNNY   24  14  65 W20G26    29.81R WCI  10
EAU CLAIRE     SUNNY     26   8  46 W8        29.88S WCI  18
BLACK RVR FLS  FAIR      25   8  48 E15G23    29.91S WCI  13
MEDFORD        SUNNY     23   6  48 NW13      29.79S WCI  11
WAUSAU         SUNNY     21   7  54 W17       29.80R WCI   7
WIS RAPIDS     SUNNY     23   6  48 NW14G24   29.86R WCI  11
MARSHFIELD     SUNNY     21   6  52 W14       29.82R WCI   8
RICE LAKE      MOSUNNY   28  10  45 W10G17    29.86F WCI  19
$$

...NORTHEAST IOWA...


CITY           SKY/WX    TMP DP  RH WIND       PRES   REMARKS
WATERLOO       SUNNY     26  13  57 W9        30.02R WCI  17
DUBUQUE        SUNNY     25  14  63 NW17      29.96R WCI  12
DECORAH        SUNNY     23  10  58 W9G17     29.95R WCI  13
MASON CITY     SUNNY     23  13  65 W14       29.99F WCI  11
CHARLES CITY   SUNNY     23  12  63 W12       29.99S WCI  12
OELWEIN        SUNNY     25  16  68 W13       29.99R WCI  13
$$

...ELSEWHERE IN IOWA...


CITY           SKY/WX    TMP DP  RH WIND       PRES   REMARKS
DES MOINES     PTSUNNY   31  14  49 VRB7      30.06F WCI  24
IOWA CITY      SUNNY     31  14  49 MISG      30.05R
FORT DODGE     CLOUDY    25  16  68 SW12      30.03F WCI  14
MARSHALLTOWN   SUNNY     27  17  66 W9        30.04R WCI  18
CEDAR RAPIDS   SUNNY     27  17  66 NW16      30.02R WCI  15
$$

...NORTHERN ILLINOIS...


CITY           SKY/WX    TMP DP  RH WIND       PRES   REMARKS
CHICAGO-OHARE  FLURRIES  26  14  60 W18       29.91R WCI  13
CHICAGO-MIDWAY FLURRIES  28  12  51 W22G32    29.92R WCI  14
MOLINE         SUNNY     32  17  54 W18G28    30.01R WCI  20
ROCKFORD       PTSUNNY   26  15  63 W21G26    29.95R WCI  12
PEORIA         MOSUNNY   31  16  54 NW12G24   30.02R WCI  22
$$

NOTE: "FAIR" INDICATES FEW OR NO CLOUDS BELOW 12,000 FEET WITH NO
SIGNIFICANT WEATHER AND/OR OBSTRUCTIONS TO VISIBILITY. WIND
SPEEDS ARE IN MILES-PER-HOUR.




USA.gov is the U.S. government's official web portal to all federal, state and local government web resources and services.